Weather Roundup
Issued by NWS

Home | Current Version | Previous Version | Graphics & Text | Print | Product List | Glossary Off
Versions: 1 2 3 4 5 6 7 8 9 10 11 12 13 14 15 16 17 18 19 20 21 22 23 24 25 26 27 28 29 30 31 32 33 34 35 36 37 38 39 40 41 42 43 44 45 46 47 48 49 50

144
NZUS93 KARX 121159
HRRWXR

CURRENT HOURLY OBSERVATIONS ACROSS
MUCH OF THE UPPER MISSISSIPPI VALLEY
NATIONAL WEATHER SERVICE LA CROSSE WI
600 AM CST FRI FEB 12 2016


...SOUTHEAST MINNESOTA...


CITY           SKY/WX    TMP DP  RH WIND       PRES   REMARKS
ROCHESTER      MOCLDY    11   7  84 NW16      30.20R WCI  -6
ROCHESTER/MAYO CLOUDY    13   8  83 W15G24    30.21R WCI  -3
WINONA         CLOUDY    16  10  79 NW12      30.23R WCI   3
AUSTIN         FLURRIES  12  10  92 NW16G22   30.23R WCI  -4
ALBERT LEA     CLOUDY    14  10  85 NW9G16    30.24R WCI   2
DODGE CENTER   PTCLDY    10   7  85 NW13      30.21R WCI  -5
PRESTON        CLOUDY    11   7  85 NW13      30.20R WCI  -5
OWATONNA       PTCLDY    12   7  79 NW16      30.25R WCI  -4
FARIBAULT      CLEAR     10   7  85 NW12      30.26R WCI  -4
$$

...ELSEWHERE IN MINNESOTA...


CITY           SKY/WX    TMP DP  RH WIND       PRES   REMARKS
MINNEAPOLIS    PTCLDY     9   2  73 NW16G28   30.28R WCI  -8
INTNL FALLS    CLOUDY    -9 -15  75 NW16      30.28R WCI -32
DULUTH         CLEAR      0  -8  69 NW16G29   30.14R WCI -20
RED WING       CLEAR     12   3  67 NW9G17    30.24R WCI   0
REDWOOD FALLS  PTCLDY    10   5  80 NW13      30.35R WCI  -5
MANKATO        CLEAR     12   7  79 NW16      30.29R WCI  -4
WORTHINGTON    CLOUDY    10   5  79 N18       30.32R WCI  -8
FAIRMONT       CLOUDY    12   7  79 NW18      30.28R WCI  -5
$$

...SOUTHWEST WISCONSIN...


CITY           SKY/WX    TMP DP  RH WIND       PRES   REMARKS
LA CROSSE      MOCLDY    13   7  77 NW13      30.21R WCI  -2
PRAIRIE DU CHI CLOUDY    15   9  75 NW7       30.21R WCI   6
BOSCOBEL       CLOUDY    15   8  73 W5        30.21R WCI   8
LONE ROCK      NOT AVBL
PLATTEVILLE    CLOUDY    14  11  88 W7        30.15F WCI   4
FORT MC COY    CLOUDY    13   9  82 W5        30.18R WCI   5
CAMP DOUGLAS   CLOUDY    13  11  93 W10       30.14R WCI  -1
VIROQUA        CLOUDY    10   7  87 W7        30.14R WCI  -1
WIS DELLS      CLOUDY    12   6  76 W7        30.13R WCI   2
$$

...ELSEWHERE IN WISCONSIN...


CITY           SKY/WX    TMP DP  RH WIND       PRES   REMARKS
MILWAUKEE      CLOUDY    18   2  49 NW10      30.11S WCI   6
MADISON        FLURRIES  14   6  70 NW8       30.13S WCI   3
GREEN BAY      CLOUDY    13   3  64 W9        30.09R WCI   1
EAU CLAIRE     CLOUDY    13   4  67 NW12      30.18R WCI  -1
BLACK RVR FLS  FLURRIES  14   7  75 W7        30.17R WCI   3
MEDFORD        CLOUDY     9   2  72 NW17G25   30.06S WCI  -9
WAUSAU         CLOUDY    12   2  64 NW13      30.07R WCI  -3
WIS RAPIDS     CLOUDY    12   4  70 W8        30.13R WCI   0
MARSHFIELD     LGT SNOW  12   4  70 NW16      30.08R WCI  -5
RICE LAKE      PTCLDY     7  -1  69 NW5       30.20R WCI  -2
$$

...NORTHEAST IOWA...


CITY           SKY/WX    TMP DP  RH WIND       PRES   REMARKS
WATERLOO       CLOUDY    15  11  83 NW13      30.24R WCI   1
DUBUQUE        CLOUDY    16  11  80 NW13      30.16S WCI   2
DECORAH        CLOUDY    14   9  79 NW8       30.18R WCI   3
MASON CITY     LGT SNOW  15  12  88 N16       30.25R FOG     WCI  -1
CHARLES CITY   CLOUDY    14  12  92 NW14      30.23R WCI  -1
OELWEIN        FLURRIES  14  12  92 NW14      30.21R WCI  -1
$$

...ELSEWHERE IN IOWA...


CITY           SKY/WX    TMP DP  RH WIND       PRES   REMARKS
DES MOINES     FLURRIES  20  13  74 N16       30.29R WCI   6
IOWA CITY      CLOUDY    21  17  84 NW10      30.24R WCI  10
FORT DODGE     CLOUDY    16  10  79 NW8       30.28S WCI   5
MARSHALLTOWN   CLOUDY    17  13  84 NW16      30.24R WCI   2
CEDAR RAPIDS   CLOUDY    19  16  88 NW17      30.21R WCI   4
$$

...NORTHERN ILLINOIS...


CITY           SKY/WX    TMP DP  RH WIND       PRES   REMARKS
CHICAGO-OHARE  CLOUDY    19   7  59 W10       30.14F WCI   7
CHICAGO-MIDWAY CLOUDY    21   6  52 W9        30.16S WCI  11
MOLINE         CLOUDY    22  16  78 W8        30.21R WCI  12
ROCKFORD       FLURRIES  18   8  65 NW13      30.18S WCI   5
PEORIA         CLOUDY    22  17  81 NW5       30.22R WCI  16
$$

NOTE: "FAIR" INDICATES FEW OR NO CLOUDS BELOW 12,000 FEET WITH NO
SIGNIFICANT WEATHER AND/OR OBSTRUCTIONS TO VISIBILITY. WIND
SPEEDS ARE IN MILES-PER-HOUR.




USA.gov is the U.S. government's official web portal to all federal, state and local government web resources and services.